Torna al catalogo

ONEWEB-0604

AttivoComunicazioniPO
NORAD 54668·PAYLOAD·🇬🇧 United Kingdom

Lanciato Dec 8, 2022 da Cape Canaveral Space Force Station

Loading…

Prossimi Passaggi (prossime 24 ore)

TLE

AggiornatoSource: CelesTrak SupGP

Epoca: Sep 14, 2026, 15:00 UTC

1 54668C 22166AC  26257.62518935 -.00000616  00000+0 -14929-2 0  2575
2 54668  87.9271 226.1747 0002095  81.3301 313.7708 13.21824966    18

Traccia ONEWEB-0604 in tempo reale con AllMySat

Download on the App Store